Location: Arbon
(43.0005°N, 0.7472°E)
Time: 10:43:12
(UTC+00:00)

Vanguard 2 Rocket - Pass Details

Date: 28 November 2020
Orbit: 554 x 3325 km, 32.9° (Epoch: 21 January)

Event Time Altitude Azimuth Distance (km) Brightness Sun altitude
Rises 05:02:31 0° 194° (SSW) 6,674 11.3 -22.0°
Reaches altitude 10° 05:08:21 10° 181° (S) 5,971 11.1 -20.9°
Maximum altitude 05:21:29 23° 138° (SE) 5,241 11.3 -18.6°
Drops below altitude 10° 05:34:34 10° 96° (E) 6,019 12.4 -16.2°
Sets 05:40:20 0° 83° (E) 6,749 12.7 -15.2°
